Дата Пункты Температура Давл., мм. Влажн., % Ветер Погодные явления
Воздуха Воды Направл. Скорость
08.04.15 05:00 Одесса 10.0 6.0 757 54 Пн-З 4 18 часов
08.04.15 02:00 Одесса 9.0 6.0 755 57 Пн-З 5 15 часов
08.04.15 11:00 Одесса 7.0 5.0 754 66 Пн-З 6 12 часов
08.04.15 08:00 Одесса 5.0 5.0 752 69 Пн-З 6 09 часов
08.04.15 05:00 Одесса 4.0 5.0 751 72 Пн-З 7 06 часов
08.04.15 02:00 Одесса 4.0 5.0 750 82 Пн-З 6 03 часа
07.04.15 08:00 Одесса 4.0 5.0 751 96 Пн-З 8 21 час
07.04.15 05:00 Одесса 4.0 6.0 750 96 Пн 11 18 часов
07.04.15 02:00 Одесса 4.0 6.0 750 96 Пн 10 15 часов
07.04.15 11:00 Одесса 3.0 6.0 751 95 Пн 10 12 часов
07.04.15 08:00 Одесса 3.0 6.0 752 94 Пн-С 13 09 часов
07.04.15 05:00 Одесса 4.0 5.0 752 94 Пн-С 14 06 часов
07.04.15 02:00 Одесса 4.0 5.0 754 94 Пн-С 14 03 часа
06.04.15 08:00 Одесса 6.0 5.0 757 86 Пн-С 9 21 час
06.04.15 05:00 Одесса 6.0 5.0 758 78 С 8 18 часов
06.04.15 02:00 Одесса 7.0 5.0 759 83 С 5 15 часов
06.04.15 11:00 Одесса 7.0 5.0 760 91 С 4 12 часов
06.04.15 08:00 Одесса 7.0 5.0 760 95 С 3 09 часов
06.04.15 05:00 Одесса 5.0 5.0 760 97 Пн 1 06 часов
06.04.15 02:00 Одесса 6.0 5.0 760 90 Пд-З 1 03 часа
Количество строк
411 412 413 414 415 416 417 418 419 420
Page 413 of 491